Theta_e
304 306 306 306 306 304 304 302 300 300 298 298 297 297 301 296 295 294 297 301 303 306 308 308 308 306 302 313 313 313 316 316 314 313 313 314 322 322 320 319 318 319 329 331 330 329 329
305 305 305 305 305 306 305 303 301 300 299 299 298 296 294 296 296 294 294 294 299 304 306 306 307 306 311 309 311 317 318 316 318 313 314 315 319 318 317 318 319 319 332 330 329 329 329
305 305 305 304 303 303 303 303 303 302 301 299 298 296 294 293 293 294 294 294 295 300 305 304 308 306 310 304 309 313 309 312 315 318 315 317 318 319 318 319 318 319 328 331 331 329 329
304 305 305 304 303 303 302 303 303 303 302 301 299 297 294 292 292 292 293 294 294 298 301 305 310 307 307 306 308 309 312 313 314 315 319 319 320 318 319 319 317 319 316 323 332 331 328
304 303 304 304 302 302 302 302 303 303 303 303 302 299 296 293 292 292 293 295 300 304 307 310 307 307 308 312 314 312 311 312 313 314 317 320 319 318 318 317 316 315 317 318 326 332 330
304 304 303 304 303 302 302 302 302 303 303 303 302 301 297 295 293 292 294 304 312 312 308 309 309 308 308 310 313 313 313 312 311 312 318 319 314 316 314 315 317 317 318 316 323 333 330
302 303 303 304 304 304 304 304 302 302 302 303 303 301 298 297 294 293 306 310 309 309 309 312 311 309 308 315 315 312 312 311 311 313 315 318 317 316 315 316 318 318 318 318 330 332 332
302 302 302 303 303 303 303 303 302 302 302 302 303 302 299 297 294 299 302 310 308 306 310 311 311 312 313 314 316 315 311 309 309 310 314 317 319 318 315 316 318 318 318 324 334 331 330
302 302 302 301 302 303 303 303 302 301 301 301 302 302 300 297 294 300 304 307 305 305 311 312 311 312 313 315 316 316 309 308 309 310 312 314 318 319 318 317 317 316 317 319 334 330 328
301 300 301 301 301 301 302 302 302 301 300 300 301 301 300 297 296 301 306 303 304 307 315 313 314 312 314 316 316 314 311 309 310 309 311 312 315 317 318 318 317 317 317 318 333 334 335
301 301 301 300 301 300 299 299 299 300 299 299 299 300 300 297 298 301 301 301 305 313 303 309 315 312 314 314 312 314 313 312 309 310 309 312 315 316 318 318 317 317 318 318 331 328 331
300 300 300 301 299 300 298 297 297 298 299 299 299 299 300 297 295 298 299 302 311 315 312 312 313 313 315 313 312 311 311 311 311 310 310 309 311 313 315 316 317 317 319 320 316 317 323
299 299 299 300 300 299 300 298 297 296 297 298 299 299 300 299 296 297 301 306 313 315 311 311 313 314 314 313 312 311 309 309 310 312 312 313 313 311 314 314 315 317 316 319 319 319 320
298 298 298 299 299 299 299 299 297 296 297 298 298 300 300 299 297 296 302 310 311 310 311 309 312 314 314 314 314 313 309 309 309 311 310 311 311 311 313 314 314 314 315 320 321 326 332
298 298 298 298 298 299 299 299 298 297 296 297 299 300 301 299 298 299 300 312 309 310 310 309 312 314 315 314 315 314 311 310 310 310 311 311 311 314 313 315 315 317 317 317 321 327 336
297 298 298 298 298 298 298 298 298 297 296 297 300 300 300 299 298 301 297 301 309 309 306 307 313 315 316 316 315 314 312 312 311 312 311 312 312 312 314 315 316 317 317 320 320 324 336
296 297 297 297 298 298 298 298 298 297 296 297 300 299 299 299 299 300 300 297 299 302 304 307 309 309 316 318 315 314 314 314 313 312 313 312 312 313 317 315 316 318 320 322 320 324 335
295 295 295 295 295 297 298 298 298 297 295 297 298 300 298 299 301 300 302 300 302 300 301 303 306 309 312 314 319 315 315 315 314 312 312 312 313 313 312 315 316 316 317 320 323 326 332
296 296 296 295 295 295 296 298 297 296 296 298 299 299 299 302 299 300 301 300 301 300 300 301 307 308 311 310 311 319 316 316 315 313 312 312 312 313 312 318 317 317 319 320 322 324 332
297 297 297 297 296 296 296 296 297 296 295 297 299 300 297 300 300 300 300 301 301 302 302 301 302 304 307 309 315 318 319 317 316 313 318 315 314 313 314 320 319 319 319 319 323 324 333
297 297 298 297 297 296 296 295 296 296 294 297 298 301 297 299 302 303 302 302 302 304 304 303 306 305 307 309 313 321 321 318 318 317 318 313 315 320 318 320 321 319 319 320 323 325 328
297 296 297 298 296 298 297 296 295 296 295 296 297 300 298 297 299 302 303 302 302 302 301 303 305 304 308 310 311 313 319 318 316 317 318 315 316 321 322 322 323 321 319 324 329 328 328
296 296 296 297 298 298 297 296 295 295 295 296 297 298 299 300 300 301 302 302 302 302 303 303 303 306 308 309 309 312 312 315 317 319 320 319 321 321 321 322 323 324 322 328 328 327 326
297 297 297 297 298 296 296 297 295 295 295 296 296 298 299 301 300 302 302 302 303 303 303 305 304 308 309 309 311 310 314 318 320 324 320 322 324 322 322 324 326 323 322 327 328 326 324
295 297 296 296 296 297 298 297 296 295 295 296 296 297 299 300 299 300 300 301 301 301 301 303 304 306 308 310 315 326 326 324 324 322 321 322 324 325 324 327 326 323 325 327 327 325 322
295 296 295 296 297 297 295 298 293 295 295 296 296 296 295 297 298 299 299 299 301 302 303 303 304 308 310 312 316 331 325 322 324 323 323 325 323 325 323 327 327 323 324 323 322 326 319
295 296 295 297 298 296 295 296 295 294 294 296 296 296 295 298 297 299 299 300 302 302 305 305 311 310 310 313 317 328 326 322 322 322 325 325 326 326 324 323 324 323 324 322 323 324 317
295 296 296 297 297 297 296 295 294 294 295 296 296 296 295 297 296 300 300 300 301 302 303 306 311 313 313 315 324 328 323 322 322 321 325 323 327 327 325 323 324 323 323 322 319 319 316
296 296 296 297 296 296 295 295 295 295 295 297 296 295 295 296 296 299 299 299 299 301 303 300 307 306 315 316 323 329 325 323 320 322 322 323 324 327 324 323 319 323 320 318 319 317 315
Wind_Speed
10 10 10 11 11 12 12 14 16 18 18 19 20 20 22 23 23 24 25 27 26 26 29 31 32 29 11 4 8 6 3 1 3 9 7 4 3 4 3 2 3 2 4 8 15 17 12
9 10 10 11 11 12 12 13 15 16 18 19 21 22 23 24 26 27 27 26 27 26 27 29 31 23 4 5 4 1 2 6 2 8 6 7 6 4 5 3 2 1 10 18 17 20 11
10 10 11 11 12 13 13 15 15 15 16 19 22 25 26 26 28 29 29 27 25 24 26 28 23 10 3 15 3 8 17 8 7 8 4 10 2 2 4 6 3 1 9 7 12 8 9
11 11 11 11 12 13 14 14 15 16 15 17 20 24 28 29 30 31 33 34 30 25 24 27 10 1 8 13 16 20 14 12 10 12 14 12 11 6 4 1 8 5 6 6 11 11 12
12 12 11 11 13 14 15 15 15 16 17 18 20 22 26 30 32 34 37 37 32 23 16 7 2 3 10 12 10 16 19 8 7 8 11 11 1 2 4 4 5 5 3 2 5 5 7
13 13 12 12 12 13 14 15 16 16 15 18 21 24 25 29 33 36 40 35 10 10 8 5 1 2 7 4 7 7 10 14 2 5 0 3 5 2 3 4 6 7 3 4 6 5 8
14 14 13 13 13 12 12 13 15 16 16 17 19 23 27 29 33 34 32 10 8 5 10 6 5 5 8 15 6 6 8 9 2 1 6 3 2 8 11 9 5 3 4 4 7 7 8
15 15 14 14 14 13 12 13 14 15 15 17 18 21 26 29 33 18 22 5 6 8 10 16 18 16 34 13 6 7 12 6 6 5 5 1 12 12 7 5 7 7 7 4 8 3 11
17 16 14 14 14 14 14 14 14 14 15 15 16 19 24 29 26 15 18 5 28 27 4 8 9 8 11 13 8 8 9 6 4 6 9 8 4 10 8 8 8 9 8 8 7 10 12
17 19 17 15 15 14 15 15 15 15 15 14 14 18 21 28 5 23 4 27 29 15 3 7 7 9 9 9 8 15 10 6 4 14 6 6 10 10 6 11 7 9 8 7 16 7 5
18 18 18 18 17 17 17 16 16 15 15 14 14 16 18 18 13 8 20 30 26 1 3 5 6 5 11 14 7 11 16 2 10 8 8 12 9 9 12 18 6 12 9 7 13 7 7
19 19 19 18 19 19 18 19 18 16 15 13 13 14 15 11 15 10 23 24 5 2 8 6 8 10 9 6 4 4 6 4 3 5 1 10 0 6 9 8 10 8 4 0 4 4 3
22 20 20 20 20 20 20 20 19 16 15 13 12 12 12 12 6 17 22 9 2 6 8 5 6 8 9 9 12 6 10 13 9 7 8 17 15 6 6 7 4 4 5 3 2 2 4
22 23 22 23 22 21 21 21 20 18 15 14 12 11 13 17 14 13 12 2 5 4 7 11 7 10 10 7 7 7 8 15 11 3 4 6 5 13 6 13 8 8 8 6 5 4 5
24 25 25 24 23 22 22 22 22 20 16 14 10 13 13 20 10 4 3 6 5 4 6 16 16 6 5 7 6 10 7 13 19 18 8 7 7 4 7 7 11 6 6 8 5 3 5
26 25 25 25 24 24 24 23 23 20 17 13 9 5 14 17 5 5 3 8 7 3 16 12 4 10 5 8 9 12 10 7 8 20 6 5 2 7 8 5 5 10 6 2 2 5 3
26 25 25 25 23 22 23 23 23 21 18 14 11 2 9 12 13 2 6 7 5 12 13 9 9 9 7 6 5 9 8 12 19 14 17 5 3 6 2 8 14 2 2 2 4 5 5
32 32 32 31 28 24 23 24 24 23 19 14 6 5 9 22 6 3 10 2 6 13 12 9 9 9 12 11 8 10 14 10 12 11 16 12 6 6 9 7 9 10 10 7 5 3 3
35 35 35 34 32 29 27 25 26 25 21 12 3 3 8 17 8 10 1 5 6 6 6 5 7 3 7 10 8 8 12 11 9 20 16 10 5 1 7 5 2 11 5 5 5 4 4
35 36 34 36 37 34 31 28 28 27 23 24 3 5 4 5 4 7 12 12 11 11 15 14 14 16 18 15 14 10 4 10 8 11 9 17 6 8 6 6 3 8 6 6 7 4 7
32 35 37 37 38 38 36 33 32 30 26 23 5 4 5 6 9 10 12 3 10 5 11 12 7 22 16 9 15 6 9 7 5 9 8 8 8 7 8 8 5 6 8 7 5 6 6
37 35 38 42 37 43 40 38 36 34 29 22 5 4 3 3 10 12 10 11 16 15 10 11 17 18 13 16 15 24 15 9 7 3 8 6 6 7 8 7 5 5 5 10 5 13 14
40 38 30 30 34 40 44 41 39 36 33 11 18 6 3 6 6 10 11 14 15 13 12 22 21 18 19 25 18 20 22 23 19 9 7 10 8 5 5 3 3 2 8 6 5 12 25
28 27 31 31 32 34 42 46 43 40 41 15 12 5 4 3 9 10 9 11 14 15 18 20 15 16 12 14 22 22 24 22 16 16 10 7 7 4 4 3 2 6 6 19 20 16 12
26 24 29 34 35 35 43 49 44 43 40 30 16 6 2 6 5 8 9 8 10 13 17 19 23 22 18 15 13 9 3 4 8 8 6 8 5 4 5 2 1 3 8 12 17 3 16
18 19 17 18 28 33 31 53 44 41 39 32 24 19 2 1 6 9 5 5 3 5 10 17 19 15 6 5 7 5 5 6 5 5 4 6 8 6 3 5 5 8 4 16 13 5 15
14 15 14 14 27 32 34 36 37 37 37 33 14 28 7 4 4 5 4 5 5 3 4 8 4 6 8 9 7 5 6 8 5 9 6 4 4 7 4 3 5 7 21 9 6 10 22
11 9 12 19 25 31 36 34 35 36 36 32 21 18 11 3 4 6 7 5 3 3 4 6 4 8 7 9 4 6 5 5 4 7 8 6 6 4 4 4 3 15 8 9 6 21 27
3 6 11 23 28 32 33 34 34 33 32 31 9 21 22 6 4 6 20 26 19 15 3 2 6 7 4 3 4 4 4 3 6 4 2 3 7 7 7 5 4 21 6 9 24 29 21
Wind_Direction
319 323 322 320 319 331 340 346 350 354 355 354 352 350 349 349 342 336 328 322 323 329 331 334 336 338 349 336 253 290 281 266 240 213 198 172 158 184 228 240 10 195 122 53 96 88 79
314 312 313 315 320 317 315 330 337 345 349 349 348 347 346 344 341 340 333 324 313 312 318 327 332 334 351 267 239 201 92 313 175 170 188 184 204 164 262 265 155 52 115 120 109 121 130
308 306 307 310 313 315 316 318 322 331 339 345 346 345 342 339 338 338 333 324 312 300 303 317 321 332 272 242 205 232 294 262 247 218 203 219 268 141 302 302 313 116 110 153 170 150 131
296 301 301 307 311 312 313 313 314 319 326 335 341 342 340 337 337 335 330 321 310 300 298 309 305 292 250 268 297 279 252 268 252 252 241 263 280 225 194 256 4 2 107 155 201 182 180
309 295 290 298 305 308 311 314 312 312 317 325 333 339 340 335 335 335 328 321 311 299 285 256 207 187 265 307 278 258 234 233 253 281 249 267 138 166 22 78 6 2 243 309 147 178 122
301 302 300 298 298 300 305 310 312 312 310 315 325 331 336 334 335 336 332 328 33 76 79 102 248 338 265 269 295 253 218 207 225 335 220 91 56 49 40 91 218 223 248 238 168 202 62
293 296 295 297 293 295 302 305 308 311 314 310 316 326 329 333 336 342 354 1 13 354 9 258 243 278 292 354 338 218 171 150 153 101 170 181 127 216 210 195 223 210 272 287 42 94 70
289 290 292 293 291 292 296 301 303 306 311 312 310 320 324 330 335 346 356 28 62 297 294 279 259 261 267 287 307 300 172 140 151 178 156 66 232 222 209 219 242 251 261 121 81 51 87
287 283 286 289 289 290 291 295 297 301 305 313 308 316 322 326 335 354 343 42 338 346 261 279 225 220 239 167 218 262 156 166 138 138 195 180 223 192 197 242 232 240 219 199 163 104 71
287 285 278 282 286 289 288 287 291 298 303 309 308 311 323 331 359 340 341 333 337 340 311 268 218 232 189 177 249 220 192 146 195 195 140 238 244 262 217 241 195 258 218 192 142 152 183
284 286 287 280 279 280 289 290 291 293 299 302 304 304 319 337 316 328 323 330 331 162 313 215 195 174 175 174 137 213 201 97 181 183 141 225 162 203 221 237 210 253 267 223 178 153 113
285 283 283 281 280 276 280 285 288 292 292 298 297 296 310 328 319 301 326 327 337 45 248 285 158 169 143 207 213 111 144 163 166 120 162 242 323 162 216 235 214 246 277 46 80 118 83
277 278 278 277 276 275 272 275 283 285 286 285 287 281 290 300 286 328 337 335 86 222 313 279 185 164 165 182 203 175 163 182 175 146 201 251 257 250 213 255 221 162 73 301 317 349 184
276 274 272 271 271 268 267 263 272 278 277 276 275 269 271 274 291 316 330 85 233 255 273 317 352 158 185 147 217 199 150 192 221 150 127 177 284 211 185 201 197 204 158 172 200 190 147
275 273 270 267 266 263 259 255 257 267 269 266 268 253 263 270 280 272 45 212 228 212 5 349 316 179 222 206 150 187 206 209 193 197 157 174 250 210 180 198 171 229 215 173 158 131 88
274 273 272 268 264 260 257 252 247 252 255 247 229 240 255 260 225 172 83 243 224 293 2 344 300 21 239 192 199 179 174 210 206 202 176 203 254 210 232 139 238 187 163 142 358 169 116
274 272 269 266 264 259 253 247 237 240 241 232 209 221 268 211 170 187 222 228 307 301 355 342 339 327 295 310 242 187 205 232 199 201 193 155 91 290 137 187 211 148 181 123 131 141 149
270 266 263 262 260 255 249 243 233 230 230 214 190 216 258 178 186 208 232 234 341 292 312 304 291 266 264 339 295 201 207 208 187 174 184 185 194 244 234 259 208 205 198 158 131 200 84
270 264 258 255 251 249 246 238 225 222 214 182 215 218 249 181 209 224 207 220 247 288 266 258 271 301 337 328 313 271 212 219 238 181 185 164 212 148 329 341 138 206 183 160 120 88 164
271 268 257 254 246 240 237 233 221 218 212 199 178 203 227 220 207 206 216 237 250 248 267 240 260 268 287 293 273 279 303 228 217 190 190 156 165 184 193 209 164 168 190 173 141 126 148
274 272 262 259 241 234 230 227 219 216 214 194 194 208 205 192 219 212 207 240 227 256 227 264 258 233 242 259 306 218 357 310 210 220 150 143 179 169 211 220 202 187 189 179 154 162 151
272 274 277 247 241 233 225 219 218 211 206 198 209 196 219 208 201 198 205 213 244 257 252 271 251 255 275 262 252 293 314 330 230 173 152 186 212 153 214 209 203 210 211 108 88 91 78
285 265 266 243 232 228 221 215 210 207 196 199 209 240 301 196 168 181 214 228 235 243 251 247 256 281 278 265 278 276 285 275 258 282 172 157 149 133 213 205 285 258 170 130 109 138 138
276 262 256 246 229 220 221 208 205 203 199 196 192 198 223 254 195 185 180 201 223 244 261 280 288 269 248 301 309 280 259 257 247 250 218 142 118 120 172 83 153 259 171 149 140 147 144
278 264 261 249 232 223 213 204 197 200 199 198 181 184 176 216 207 174 190 222 245 251 263 264 266 253 280 296 294 291 261 192 230 205 165 135 116 88 121 112 60 38 133 131 139 67 140
277 269 256 234 220 206 213 190 190 196 197 194 204 203 189 203 205 183 191 206 235 251 271 264 269 257 254 287 268 247 228 181 188 134 100 87 120 121 113 134 172 213 134 124 108 109 161
291 269 238 228 192 184 181 181 185 192 196 192 200 208 184 238 239 149 173 178 178 213 263 294 303 251 253 252 247 242 246 169 153 150 153 99 73 142 119 149 254 173 155 173 114 193 165
304 233 207 185 176 178 181 184 190 195 195 187 204 199 177 258 261 193 173 159 158 208 206 329 359 243 238 206 211 236 232 207 119 168 158 147 125 156 116 106 184 165 182 166 174 146 155
338 201 197 188 182 180 185 190 193 197 198 185 195 219 228 250 258 259 237 230 221 218 174 201 269 311 257 192 243 269 261 132 140 178 102 174 176 151 174 202 213 168 158 134 138 147 157